Regional Weather Roundup
Issued by NWS Charleston, SC

Current Version | Previous Version | Graphics & Text | Print | Product List | Glossary On
Versions: 1 2 3 4 5 6 7 8 9 10 11 12 13 14 15 16 17 18 19 20 21 22 23 24 25 26 27 28 29 30 31 32 33 34 35 36 37 38 39 40 41 42 43 44 45 46 47 48 49 50
000
ASUS42 KCHS 241312
RWRCHS

REGIONAL WEATHER ROUNDUP
NATIONAL WEATHER SERVICE CHARLESTON SC
800 AM EST TUE JAN 24 2017

NOTE: "FAIR" INDICATES FEW OR NO CLOUDS BELOW 12,000 FEET WITH NO
SIGNIFICANT WEATHER AND/OR OBSTRUCTIONS TO VISIBILITY.

NOT ALL STATIONS ARE QUALITY CONTROLLED. USE DATA WITH CAUTION...
ESPECIALLY DEWPOINT OBSERVATIONS.

SCZ027-030-031-034>040-042>050-241400-
...SOUTHEAST SOUTH CAROLINA...

CITY           SKY/WX    TMP DP  RH WIND       PRES   REMARKS
N CHARLESTON   CLEAR     50  43  77 W13       29.69R
WATERFRONT PRK   N/A     50  46  86 W7        29.67R
MOUNT PLEASANT FAIR      50  45  81 W8        29.69R
JOHNS ISLAND   FAIR      50  45  81 W14       29.70R
PINOPOLIS        N/A     50  46  87 W13       29.60R
MONCKS CORNER  FAIR      48  43  81 W5        29.69R
SUMMERVILLE    FAIR      48  45  87 W8        29.71R
BEAUFORT MCAS  CLEAR     50  43  77 W12       29.72R
BEAUFORT ARPT  FAIR      50  43  76 W12G20    29.72R HAZE
HILTON HEAD IS CLEAR     50  45  81 W14G23    29.72R
WALTERBORO     MOSUNNY   46  43  87 W9        29.72R
ALLENDALE      FAIR      48  43  81 VRB6      29.72R

...SOUTHERN MIDLANDS AND PEE DEE...

CITY           SKY/WX    TMP DP  RH WIND       PRES   REMARKS
GEORGETOWN     FAIR      46  46 100 W6        29.67R
KINGSTREE      FAIR      46  43  87 W7        29.67R
ORANGEBURG     CLEAR     48  42  80 W9        29.70R
BARNWELL       FAIR      48  45  87 W6        29.72R
AIKEN          FAIR      45  41  87 W9        29.74R
MANNING        FAIR      46  32  57 W8        29.68R
COLUMBIA       CLEAR     48  42  80 W12       29.69R
SUMTER         CLEAR     47  43  85 W8        29.66R
FLORENCE       CLEAR     43  43 100 W6        29.66R
MYRTLE BEACH   PTCLDY    46  41  81 VRB6      29.66R
N MYRTLE BEACH CLEAR     45  44  97 VRB3      29.64R

$$

GAZ063-065-086>088-099>101-113>116-118-119-134>141-150-241400-
...SOUTHEAST GEORGIA...

CITY           SKY/WX    TMP DP  RH WIND       PRES   REMARKS
SAVANNAH ARPT  CLEAR     50  43  77 W10       29.75R
HUNTER AAF     CLEAR     49  47  93 W12       29.72R
FORT STEWART   CLEAR     50  44  79 W12       29.74R
STATESBORO     CLEAR     49  46  88 NW13      29.75R
SYLVANIA       SUNNY    N/A N/A N/A NW9       29.75R
CLAXTON        FAIR     N/A N/A N/A W9        29.77R

...CSRA...CENTRAL AND FAR SOUTHEAST GEORGIA...

CITY           SKY/WX    TMP DP  RH WIND       PRES   REMARKS
THOMSON        CLEAR     48  44  88 W9        29.78R
AUGUSTA-BUSH   CLEAR     49  41  74 NW6       29.73R
AUGUSTA-DANIEL CLEAR     48  39  71 W8        29.73R
SWAINSBORO     FAIR      46  45  93 W8        29.77R
VIDALIA        CLEAR     48  46  93 W6        29.78R
EASTMAN        FAIR      49  40  70 W8        29.84R
HAZLEHURST     FAIR      50  49  97 W7        29.79R
ALMA           PTCLDY    49  47  93 W7        29.80R
WAYCROSS       PTCLDY    52  52 100 W9        29.81R
JESUP          FAIR      52  45  76 NW8       29.78R
BAXLEY         FAIR      50  50 100 W7        29.79R
BRUNSWICK      CLEAR     52  50  93 W8        29.79R
SAINT SIMONS   CLEAR     53  48  83 W12       29.77R

$$

SCZ027-028-034-036>038-045-046-048>050-GAZ119-141-241400-
...LAKE AND SUPPLEMENTAL COASTAL OBSERVATIONS...

STATION/POSITION TIME  TEMP    WIND        PRES    WAVE   SWELL
                       AIR SEA DIR/SP/G            HT/PER HT/PER/DIR
                 (UTC) (F)     (DEG/KT/KT) (MB)    (FT/S) (FT/S/D)
WINYAH BAY       1145   49     290/  4     1002.0
LAKE MURRAY      1220   48     280/ 14/ 17 1004.4
ACE BASIN NERRS  NOT AVBL
FORT PULASKI     1248   51 58  300/ 14/ 16 1007.0R
SAPELO ISLAND    1200   53     270/ 12     1007.0

$$

ANZ835-935-AMZ111-154-330-350-352-354-370-450-454-472-241400-
...C-MAN AND BUOY OBSERVATIONS...

STATION/POSITION TIME  TEMP    WIND        PRES    WAVE   SWELL
                       AIR SEA DIR/SP/G            HT/PER HT/PER/DIR
                 (UTC) (F)     (DEG/KT/KT) (MB)    (FT/S) (FT/S/D)
BUOY 41004       1150   58 69  290/ 19/ 25 1002.4    7/ 8   5/190/ 8
BUOY 41008       1150   55 60  280/ 19/ 23 1005.6    4/ 4
FOLLY BEACH CMAN 1200   50     280/  8/ 12 1004.6R
CAPERS NEARSHORE 1208   53 56  290/ 16/ 19 1003.7R
FRIPP NEARSHORE  1208   53 58  300/ 16/ 21 1005.4R


STATION/POSITION TIME  TEMP    WIND        PRES    WAVE   SWELL
                       AIR SEA DIR/SP/G            HT/PER HT/PER/DIR
                 (UTC) (F)     (DEG/KT/KT) (MB)    (FT/S) (FT/S/D)
5E ST. MARYS GA  1230      62                N/A     3/ 4   2/ 60/13
FRYING PAN BUOY  1250   54 69  300/ 19/ 25 1002.9R   7/ 9   3/170/ 9
BUOY 41025       1150   47 74  320/ 23/ 29  996.8   10/11   8/110/11
CAPE LOOKOUT NC  1300   45     310/ 20/ 23 1000.0R
BUOY 41002       1250   67 71  300/ 27/ 33  999.0R  13/11  10/270/11
BUOY 41010       NOT AVBL
ST AUGUSTINE FL  1300   54 62  270/  9/ 11 1010.2R


$$




USA.gov is the U.S. government's official web portal to all federal, state and local government web resources and services.